Regional Weather Roundup
Issued by NWS

Home | Current Version | Previous Version | Text Only | Print | Product List | Glossary Off
Versions: 1 2 3 4 5 6 7 8 9 10 11 12 13 14 15 16 17 18 19 20 21 22 23 24 25 26 27 28 29 30 31 32 33 34 35 36 37 38 39 40 41 42 43 44 45 46 47 48 49 50

000
ASUS45 KTFX 211119
RWRMT
MONTANA HOURLY WEATHER ROUNDUP
NATIONAL WEATHER SERVICE GREAT FALLS MT
519 AM MDT THU AUG 21 2014

NOTE: "FAIR" INDICATES FEW OR NO CLOUDS BELOW 12000 FEET WITH NO
SIGNIFICANT WEATHER AND/OR OBSTRUCTIONS TO VISIBILITY.

* THESE STATIONS ARE NOT UNDER NWS QUALITY CONTROL. THEY DO NOT
   REPORT WEATHER SUCH AS PRECIPITATION OR FOG.

MTZ001>007-043-211200-
WEST OF THE DIVIDE
CITY           SKY/WX    TMP DP  RH WIND       PRES   REMARKS
KALISPELL      CLOUDY    55  52  90 N9        30.00R
MISSOULA       MOCLDY    54  52  93 NW3       30.00R
BUTTE          CLOUDY    52  45  77 CALM      30.09R
MULLAN PASS    PTCLDY    52  45  77 CALM      30.06S
* ESSEX        N/A       51  50  96 NE1        N/A
* LINCOLN      N/A       48  47  96 N2         N/A
* LOOKOUT PASS N/A       52  48  86 N/A        N/A
* POLSON       N/A       51  51 100 NE1        N/A
* RONAN APT    MOCLDY    55  52  90 N/A        N/A
* SEELEY LAKE  N/A       47  46  96 S1G6       N/A
* THOMP F APT  PTCLDY    49  47  93 NE2        N/A
* YAAK HILL    N/A       53  51  93 N/A        N/A
$$

MTZ008-052>055-211200-
SOUTHWEST MONTANA
CITY           SKY/WX    TMP DP  RH WIND       PRES   REMARKS
BOZEMAN        CLOUDY    55  52  90 W7        30.04R
DILLON         CLOUDY    54  48  80 S5        30.05R
W YELLOWSTONE  CLOUDY    46  46 100 S3        30.14S
* THREE FORKS  CLOUDY    57  57 100 N/A        N/A
* BOULDER HILL N/A       48  44  86 NE2        N/A
* MONIDA PASS  N/A       47  47 100 SE8        N/A
* RAYNOLDS PAS N/A       48  28  46 SE9        N/A
* WHITEHALL    N/A       55  51  86 NE2        N/A
* WISE RIVER   N/A       49  47  93 SE2        N/A
$$

MTZ009>010-012-014-046-048-049-054-211200-
EAST SLOPES AND CENTRAL MONTANA
CITY           SKY/WX    TMP DP  RH WIND       PRES   REMARKS
CUT BANK       CLOUDY    52  48  86 N15       30.06R
GREAT FALLS    CLOUDY    54  54 100 NW6       30.03R
HELENA         CLOUDY    55  52  90 W6        30.03R
MALMSTROM AFB  CLOUDY    55  52  90 W5        30.05R
* CONRAD       CLOUDY    54  54 100 NW9        N/A
* DEARBORN     N/A       57  52  83 S6         N/A
* EAST GLACIER N/A       47  45  93 N4         N/A
* MONARCH      N/A       49  46  89 NW6        N/A
* PENDROY      N/A       51  51 100 N11        N/A
* ROGERS PASS  N/A       45  43  93 NW1        N/A
* SAINT MARY   N/A       47  46  96 E2G8       N/A
* SWEET GRASS  N/A       50  50 100 N12        N/A
* WHITE SULPH  N/A       53  49  86 SW1G12     N/A
$$

MTZ011-013-016-021-035-040-045-047-050-051-211200-
NORTH CENTRAL MONTANA
CITY           SKY/WX    TMP DP  RH WIND       PRES   REMARKS
HAVRE          CLOUDY    57  55  93 W5        29.97S
LEWISTOWN      CLOUDY    55  52  90 W8        30.03R
* FORT BENTON  CLOUDY    57  55  93 CALM      30.02R
* CHESTER      N/A       54  52  93 N2         N/A
* DENTON       N/A       56  54  93 NW9        N/A
* GEYSER       N/A       53  52  96 W16G21     N/A
* JUDITH GAP   N/A       52  52 100 N13        N/A
* LOMA         N/A       57  55  93 S3         N/A
$$

MTZ017>020-022>027-061-062-211200-
NORTHEAST MONTANA
CITY           SKY/WX    TMP DP  RH WIND       PRES   REMARKS
GLASGOW        CLOUDY    63  57  81 NE12      29.88S
GLENDIVE       CLEAR     59  55  87 NW9       29.89R
JORDAN         CLOUDY    61  57  87 CALM      29.92R
SIDNEY         CLEAR     61  59  93 NW8       29.87R
WOLF POINT     MOCLDY    61  55  81 NW6       29.88R
* BEAVER HILL  N/A       57  56  96 SW5        N/A
* CIRCLE       N/A       59  57  93 N/A        N/A
* LINDSAY DVD  N/A       59  55  87 W12        N/A
* SACO         N/A       60  57  90 NW4        N/A
$$

MTZ028>042-056>058-211200-
SOUTHCENTRAL AND SOUTHEAST MONTANA
CITY           SKY/WX    TMP DP  RH WIND       PRES   REMARKS
BAKER          CLEAR     54  52  93 S3        29.90R
BILLINGS       CLOUDY    59  55  87 W5        29.98R
LIVINGSTON     CLOUDY    57  50  78 W5        30.03R
MILES CITY     CLOUDY    61  52  72 NW9       29.91R
* LAUREL APT   CLOUDY    59  55  87 N/A        N/A
* ROUNDUP APT  CLOUDY    59  54  84 N/A        N/A
* ALZADA       N/A       59  52  78 N/A        N/A
* HYSHAM       N/A       59  54  84 SW1        N/A
* LAME DEER    N/A       60  50  70 N8         N/A
* REED POINT   N/A       59  54  84 W4         N/A
* ROSCOE HILL  N/A       55  45  69 E1         N/A
$$

REGIONAL REPORTS...DAKOTAS
CITY           SKY/WX    TMP DP  RH WIND       PRES   REMARKS
WILLISTON      FOG       54  54 100 CALM      29.85R VSB 1/2
DICKINSON      CLEAR     55  54  96 W6        29.83R
BEACH          N/A       54  54 100 NE3       29.89R
CROSBY         FOG       57  57 100 NW9       29.85R
TIOGA          FOG       63  63 100 NW9       29.86R VSB 3
WATFORD CITY   FOG       61  61 100 NW6       29.83R VSB M1/4
BISMARCK       FAIR      64  64 100 NW8       29.77R
GRAND FORKS    CLOUDY    70  64  81 SE7       29.74R
FARGO          CLOUDY    70  68  93 N3        29.73R
BUFFALO SD     PTCLDY    57  54  90 VRB5      29.84R
RAPID CITY     MOCLDY    64  61  90 NW13      29.90S
$$

REGIONAL REPORTS...WYOMING/IDAHO/WASHINGTON
CITY           SKY/WX    TMP DP  RH WIND       PRES   REMARKS
GILLETTE       CLOUDY    57  55  93 SW3       29.97R
SHERIDAN       PTCLDY    57  48  72 W8        29.97R
CODY           CLOUDY    59  45  60 SW3       30.04R
YELLOWSTONE LA CLOUDY    45  45 100 CALM      30.20F
SALMON         CLOUDY    54  54 100 CALM      30.03F
MULLAN PASS    PTCLDY    52  45  77 CALM      30.06S
SAND POINT     FOG       50  50 100 CALM      29.97S
SPOKANE        PTCLDY    59  54  84 E7        29.94R
$$

REGIONAL REPORTS...ALBERTA
CITY           SKY/WX    TMP DP  RH WIND       PRES   REMARKS
CALGARY        MOCLDY    50  45  83 N9        30.12R
LETHBRIDGE     CLOUDY    54  52  93 NW8       30.07R
MEDICINE HAT   LGT RAIN  55  54  96 NW10      30.02R
EDMONTON       CLOUDY    48  46  93 W3        30.13R
WATERTON GATE  N/A       48  46  93 NE3        N/A
CARDSTON       N/A       50  50 100 NW8        N/A
MILK RIVER     N/A       52  50  93 NW7        N/A
$$

REGIONAL REPORTS...SASKATCHEWAN
CITY           SKY/WX    TMP DP  RH WIND       PRES   REMARKS
SWIFT CURRENT  FOG       57  57 100 NW6       29.96R
MOOSE JAW      CLOUDY    59  59 100 N6        29.91R
REGINA         CLOUDY    61  59  93 N12       29.89R
VAL MARIE      N/A       59  57  93 NE6        N/A
ASSINIBOIA     N/A       59  57  93 N7         N/A
CORONACH       N/A       57  57 100 NW9        N/A

$$




USA.gov is the U.S. government's official web portal to all federal, state and local government web resources and services.